User: anonymous   Login
Location: Ash Swamp
(41.5170°N, 74.6157°W)
Time: 06:53:19
(UTC+00:00)
Language:

Cosmos 1666 - Orbit

View from above orbital plane
View from above orbital plane
View from above satellite
View from above satellite

Ground track
Ground track

The orbit data is extracted from the following two-line orbital elements,

1 15889U 85058A   20273.90924373 +.00001013 +00000-0 +46713-4 0  9998
2 15889 082.4866 243.0391 0016165 198.5713 161.4933 15.19006314924071
Epoch (UTC): 29 September 2020 21:49:18
Eccentricity: 0.0016165
inclination: 82.4866°
perigee height: 498 km
apogee height: 520 km
right ascension of ascending node: 243.0391°
argument of perigee: 198.5713°
revolutions per day: 15.19006314
mean anomaly at epoch: 161.4933°
orbit number at epoch: 92407

The dashed part of the orbit path shows where the satellite is in the earth's shadow,  

DLR